Flag for Poland Weather past 2 weeks in Kielce, Poland

Now
74 °F

Passing clouds.


Feels Like: 77 °F
Forecast: 60 / 78 °F
Wind: 2 mph from Northwest

Location: Kielce

Current Time: Aug 28, 2015 at 10:23:13 PM

Latest Report: Aug 28, 2015 at 9:00 PM


Visibility: 13 mi

Pressure: 30.08 "Hg

Humidity: 60%

Dew point: 59 °F

Location of KielceLocation

Historic Weather in Kielce — Graph

°F

Kielce temperature yesterday

Maximum temperature yesterday: 84 °F (at 3:00 PM)
Minimum temperature yesterday: 49 °F (at 5:00 AM)
Average temperature yesterday: 67 °F

Past Weeks' High & Low Weather Summary

 TemperatureHumidityPressure
High90 °F (Aug 28, 3:00 PM)100% (Aug 25, 10:00 PM)30.34 "Hg (Aug 25, 10:00 PM)
Low49 °F (Aug 27, 5:00 AM)26% (Aug 19, 3:00 PM)29.74 "Hg (Aug 15, 5:00 PM)
Average68 °F55%30.03 "Hg
* Reported Aug 13 8:00 PM — Aug 28 8:00 PM, Kielce, Weather by CustomWeather, © 2015

Note: Actual official high and low records may vary slightly from our data, if they occured in-between our weather recording intervals... More about our weather records

Advertising

Kielce weather history for previous 24 hours

 ConditionsComfort  
Time TempWeatherWind HumidityBarometerVisibility
8:00 PM
Fri, Aug 28
76 °FOvercast.2 mph57%30.06 "Hg11 mi
7:00 PM78 °FOvercast.5 mph54%30.04 "Hg12 mi
6:00 PM84 °FOvercast.5 mph44%29.99 "Hg13 mi
5:00 PM85 °FOvercast.5 mph42%29.98 "Hg17 mi
4:00 PM89 °FScattered clouds.6 mph36%29.97 "Hg17 mi
3:00 PM90 °FScattered clouds.5 mph32%29.96 "Hg19 mi
2:00 PM89 °FOvercast.6 mph34%29.96 "Hg16 mi
1:00 PM87 °FOvercast.5 mph38%29.97 "Hg17 mi
12:00 PM86 °FOvercast.6 mph40%29.96 "Hg19 mi
11:00 AM82 °FOvercast.5 mph46%29.97 "Hg16 mi
10:00 AM80 °FOvercast.5 mph51%29.96 "Hg17 mi
9:00 AM74 °FOvercast.5 mph63%29.98 "Hg15 mi
8:00 AM65 °FOvercast.2 mph82%29.98 "Hg12 mi
7:00 AM56 °FOvercast.1 mph98%30.00 "Hg6 mi
5:00 AM53 °FFog.1 mph96%30.00 "Hg3 mi
4:00 AM54 °FFog.No wind94%30.00 "Hg4 mi
3:00 AM55 °FFog.1 mph93%29.99 "Hg5 mi
2:00 AM55 °FFog.1 mph90%30.00 "Hg6 mi
1:00 AM58 °FPassing clouds.1 mph91%30.00 "Hg7 mi
11:00 PM
Thu, Aug 27
62 °FPassing clouds.1 mph82%30.00 "Hg9 mi
10:00 PM64 °FPassing clouds.1 mph76%29.99 "Hg9 mi
Weather by CustomWeather, © 2015

See weather overviewHow to use our weather pages